CW9854 Weather Reports


Display with metric or nautical units.
time (UTC)temp
F
wind
direction
speed
MPH
gust
MPH
rain 1hr
in
rain 24hr
in
rain mn
in
humidity
%
barometer
mb
20260503223503 52 247 3.0 7.0 0.00 0.00 0.00 66 1009.4
20260503223217 52 248 3.0 7.0 0.00 0.00 0.00 65 1009.4
20260503222503 52 247 4.0 8.0 0.00 0.00 0.00 64 1009.5
20260503222003 52 247 4.0 8.0 0.00 0.00 0.00 64 1009.4
20260503221503 52 241 4.0 8.0 0.00 0.00 0.00 63 1009.3
20260503221003 53 236 4.0 8.0 0.00 0.00 0.00 63 1009.1
20260503220718 53 236 4.0 8.0 0.00 0.00 0.00 62 1009.1
20260503220003 53 234 4.0 8.0 0.00 0.00 0.00 62 1009.0
20260503215503 53 240 4.0 8.0 0.00 0.00 0.00 61 1008.9
20260503215217 53 241 4.0 8.0 0.00 0.00 0.00 62 1008.8
20260503214718 53 235 4.0 7.0 0.00 0.00 0.00 62 1008.8
20260503214003 53 227 3.0 7.0 0.00 0.00 0.00 62 1008.8
20260503213718 53 228 3.0 7.0 0.00 0.00 0.00 63 1008.8
20260503213003 52 230 2.0 5.0 0.00 0.00 0.00 66 1008.6
20260503212503 52 222 2.0 9.0 0.00 0.00 0.00 65 1008.7
20260503212003 52 219 2.0 9.0 0.00 0.00 0.00 65 1008.8
20260503211504 51 228 2.0 4.0 0.00 0.00 0.00 66 1008.8
20260503211003 51 217 3.0 8.0 0.00 0.00 0.00 64 1008.8
20260503210717 52 211 3.0 10.0 0.00 0.00 0.00 65 1008.8
20260503210004 52 225 3.0 10.0 0.00 0.00 0.00 64 1008.9
20260503205503 52 221 3.0 12.0 0.00 0.00 0.00 64 1008.9
20260503205003 52 215 3.0 12.0 0.00 0.00 0.00 63 1008.9
20260503204503 52 217 3.0 9.0 0.00 0.00 0.00 63 1009.0
20260503204218 53 221 4.0 9.0 0.00 0.00 0.00 62 1009.0
20260503203503 53 213 3.0 9.0 0.00 0.00 0.00 62 1009.2
20260503203003 53 212 3.0 9.0 0.00 0.00 0.00 61 1009.1
20260503202503 53 220 3.0 9.0 0.00 0.00 0.00 59 1009.2
20260503202003 54 220 3.0 9.0 0.00 0.00 0.00 60 1009.1
20260503201503 54 221 3.0 7.0 0.00 0.00 0.00 58 1009.2
20260503201003 54 226 3.0 7.0 0.00 0.00 0.00 58 1009.2
20260503200503 54 230 3.0 6.0 0.00 0.00 0.00 57 1009.3
20260503200218 54 234 3.0 6.0 0.00 0.00 0.00 56 1009.3
20260503195717 55 225 3.0 7.0 0.00 0.00 0.00 56 1009.4
20260503195003 55 216 4.0 8.0 0.00 0.00 0.00 56 1009.5
20260503194503 55 226 4.0 8.0 0.00 0.00 0.00 53 1009.5
20260503194218 55 223 3.0 9.0 0.00 0.00 0.00 57 1009.6
20260503193503 54 239 4.0 9.0 0.00 0.00 0.00 56 1009.9
20260503193003 54 245 4.0 8.0 0.00 0.00 0.00 53 1009.9
20260503192503 54 238 3.0 10.0 0.00 0.00 0.00 53 1010.0
20260503192008 54 238 4.0 10.0 0.00 0.00 0.00 54 1010.0
20260503191503 55 241 4.0 9.0 0.00 0.00 0.00 52 1010.2
20260503191003 56 246 4.0 8.0 0.00 0.00 0.00 51 1010.2
20260503190503 56 244 4.0 8.0 0.00 0.00 0.00 51 1010.3
20260503190003 55 238 4.0 9.0 0.00 0.00 0.00 52 1010.3
20260503185504 55 239 4.0 10.0 0.00 0.00 0.00 49 1010.3
20260503185003 55 241 5.0 10.0 0.00 0.00 0.00 50 1010.4
20260503184503 54 238 5.0 12.0 0.00 0.00 0.00 47 1010.4
20260503184003 55 232 5.0 12.0 0.00 0.00 0.00 48 1010.3
20260503183503 55 231 4.0 11.0 0.00 0.00 0.00 46 1010.5
20260503183003 55 228 4.0 11.0 0.00 0.00 0.00 48 1010.5
20260503182503 55 219 5.0 11.0 0.00 0.00 0.00 46 1010.7
20260503182004 54 215 5.0 12.0 0.00 0.00 0.00 46 1010.7
20260503181505 54 224 4.0 12.0 0.00 0.00 0.00 49 1010.9
20260503181003 54 228 3.0 8.0 0.00 0.00 0.00 50 1011.0
20260503180503 53 231 4.0 8.0 0.00 0.00 0.00 51 1011.0
20260503180004 53 218 4.0 13.0 0.00 0.00 0.00 51 1011.1
20260503175505 53 214 4.0 13.0 0.00 0.00 0.00 51 1011.2
20260503175217 53 215 5.0 13.0 0.00 0.00 0.00 53 1011.3
20260503174718 53 216 4.0 13.0 0.00 0.00 0.00 54 1011.4
20260503174003 53 236 4.0 9.0 0.00 0.00 0.00 53 1011.6
20260503173503 53 217 4.0 10.0 0.00 0.00 0.00 54 1011.7
20260503173003 53 220 4.0 10.0 0.00 0.00 0.00 53 1011.7
20260503172504 52 230 4.0 9.0 0.00 0.00 0.00 56 1011.7
20260503172219 53 233 4.0 9.0 0.00 0.00 0.00 49 1011.7
20260503171503 52 227 4.0 10.0 0.00 0.00 0.00 54 1011.7
20260503171003 52 219 3.0 10.0 0.00 0.00 0.00 60 1011.7
20260503170506 51 230 3.0 7.0 0.00 0.00 0.00 58 1011.9
20260503151003 50 215 3.0 7.0 0.00 0.00 0.00 62 1012.9
20260503150503 50 212 3.0 7.0 0.00 0.00 0.00 60 1012.8
20260503131003 45 226 2.0 8.0 0.00 0.00 0.00 80 1013.3
20260503130503 45 212 3.0 8.0 0.00 0.00 0.00 81 1013.3
20260503110503 32 0 0.0 0.0 0.00 0.00 0.00 93 1013.7
20260503090503 31 0 0.0 0.0 0.00 0.00 0.00 91 1013.7
20260503081503 32 0 0.0 0.0 0.00 0.00 0.00 91 1013.8
20260503081003 32 0 0.0 0.0 0.00 0.00 0.00 91 1013.7
20260503080503 32 0 0.0 0.0 0.00 0.00 0.00 91 1013.7
20260503080217 32 0 0.0 0.0 0.00 0.00 0.00 91 1013.7
20260503072503 33 0 0.0 0.0 0.00 0.00 0.00 90 1013.5
20260503072003 33 0 0.0 0.0 0.00 0.00 0.00 90 1013.5
20260503071503 33 0 0.0 0.0 0.00 0.00 0.00 90 1013.5
20260503071003 34 0 0.0 0.0 0.00 0.00 0.00 90 1013.5
20260503070503 34 0 0.0 0.0 0.00 0.00 0.00 90 1013.5
20260503055003 35 0 0.0 0.0 0.00 0.00 0.00 87 1013.9
20260503054504 36 201 0.0 1.0 0.00 0.00 0.00 87 1013.8
20260503054003 36 201 0.0 1.0 0.00 0.00 0.00 86 1014.0
20260503053717 36 201 0.0 1.0 0.00 0.00 0.00 86 1014.0
20260503053003 36 200 0.0 1.0 0.00 0.00 0.00 86 1014.0
20260503052503 36 200 0.0 1.0 0.00 0.00 0.00 86 1014.1
20260503052003 36 201 0.0 1.0 0.00 0.00 0.00 85 1014.1
20260503051718 36 201 0.0 1.0 0.00 0.00 0.00 85 1014.2
20260503051003 37 201 0.0 1.0 0.00 0.00 0.00 84 1014.2
20260503050717 37 201 0.0 1.0 0.00 0.00 0.00 84 1014.2
20260503050003 37 199 0.0 2.0 0.00 0.00 0.00 83 1014.2
20260503045503 37 195 0.0 4.0 0.00 0.00 0.00 83 1014.3
20260503045003 37 194 0.0 4.0 0.00 0.00 0.00 83 1014.4
20260503044503 38 188 0.0 1.0 0.00 0.00 0.00 82 1014.4
20260503044003 38 188 0.0 1.0 0.00 0.00 0.00 81 1014.3
20260503043519 38 188 0.0 2.0 0.00 0.00 0.00 81 1014.4
20260503043003 38 188 1.0 2.0 0.00 0.00 0.00 81 1014.4
20260503042503 38 188 0.0 2.0 0.00 0.00 0.00 80 1014.4
20260503042003 39 188 0.0 1.0 0.00 0.00 0.00 80 1014.4
20260503041717 39 188 0.0 1.0 0.00 0.00 0.00 80 1014.4
20260503041003 39 188 0.0 1.0 0.00 0.00 0.00 79 1014.5
20260503040503 39 188 0.0 1.0 0.00 0.00 0.00 79 1014.7
20260503040004 39 188 0.0 1.0 0.00 0.00 0.00 78 1014.6
20260503035503 39 0 0.0 0.0 0.00 0.00 0.00 79 1014.5
20260503035003 39 0 0.0 0.0 0.00 0.00 0.00 78 1014.6
20260503034503 40 0 0.0 0.0 0.00 0.00 0.00 79 1014.6
20260503034003 40 0 0.0 0.0 0.00 0.00 0.00 79 1014.6
20260503033503 40 188 0.0 1.0 0.00 0.00 0.00 79 1014.6
20260503033003 40 188 0.0 1.0 0.00 0.00 0.00 78 1014.7
20260503032503 40 188 0.0 1.0 0.00 0.00 0.00 79 1014.7
20260503032218 40 0 0.0 0.0 0.00 0.00 0.00 79 1014.7
20260503031503 40 188 0.0 1.0 0.00 0.00 0.00 78 1014.7
20260503031218 40 188 0.0 1.0 0.00 0.00 0.00 78 1014.7
20260503030503 40 0 0.0 0.0 0.00 0.00 0.00 77 1014.9
20260503030003 40 188 0.0 1.0 0.00 0.00 0.00 77 1014.7
20260503025503 40 188 0.0 1.0 0.00 0.00 0.00 77 1014.9
20260503025003 40 188 0.0 1.0 0.00 0.00 0.00 77 1014.8
20260503024503 40 188 0.0 1.0 0.00 0.00 0.00 78 1014.8
20260503024003 40 188 0.0 1.0 0.00 0.00 0.00 77 1014.9
20260503023504 41 188 0.0 1.0 0.00 0.00 0.00 77 1014.9
20260503023003 41 188 0.0 1.0 0.00 0.00 0.00 77 1014.9
20260503022503 41 188 0.0 2.0 0.00 0.00 0.00 76 1015.0
20260503022003 41 188 0.0 2.0 0.00 0.00 0.00 78 1015.1
20260503021503 41 188 0.0 1.0 0.00 0.00 0.00 78 1015.0
20260503021218 41 188 0.0 2.0 0.00 0.00 0.00 78 1015.2
20260503020503 41 191 1.0 3.0 0.00 0.00 0.00 76 1015.1
20260503020003 41 207 0.0 3.0 0.00 0.00 0.00 76 1015.1
20260503015503 41 242 1.0 2.0 0.00 0.00 0.00 76 1015.2
20260503015003 41 242 1.0 3.0 0.00 0.00 0.00 76 1015.1
20260503014503 41 240 1.0 3.0 0.00 0.00 0.00 75 1015.0
20260503014217 41 238 1.0 3.0 0.00 0.00 0.00 75 1015.1
20260503013503 41 237 1.0 2.0 0.00 0.00 0.00 75 1015.1
20260503013003 41 237 1.0 2.0 0.00 0.00 0.00 76 1015.1
20260503012503 41 237 0.0 2.0 0.00 0.00 0.00 75 1015.1
20260503012003 41 237 1.0 2.0 0.00 0.00 0.00 75 1015.1
20260503011718 41 237 1.0 2.0 0.00 0.00 0.00 75 1015.1
20260503011004 41 237 0.0 2.0 0.00 0.00 0.00 74 1015.1
20260503010503 42 0 0.0 0.0 0.00 0.00 0.00 73 1015.2
20260503010003 41 0 0.0 0.0 0.00 0.00 0.00 73 1015.1
20260503005503 42 0 0.0 0.0 0.00 0.00 0.00 73 1014.9
20260503005003 42 0 0.0 0.0 0.00 0.00 0.00 73 1014.8
20260503004503 42 237 0.0 2.0 0.00 0.00 0.00 73 1014.9
20260503004003 42 237 0.0 2.0 0.00 0.00 0.00 72 1014.7
20260503003720 42 237 1.0 2.0 0.00 0.00 0.00 72 1014.7
20260503003003 42 237 1.0 2.0 0.00 0.00 0.00 71 1014.7
20260503002503 42 237 1.0 2.0 0.00 0.00 0.00 72 1014.8
20260503002003 42 237 1.0 2.0 0.00 0.00 0.00 71 1014.7
20260503001503 42 237 1.0 2.0 0.00 0.00 0.00 72 1014.7
20260503001217 42 237 1.0 2.0 0.00 0.00 0.00 71 1014.6
20260503000503 42 237 1.0 2.0 0.00 0.00 0.00 71 1014.6
20260503000003 42 237 1.0 2.0 0.00 0.00 0.00 71 1014.6
20260502235503 42 237 1.0 2.0 0.00 0.00 0.00 70 1014.6
20260502235218 42 237 1.0 2.0 0.00 0.00 0.00 71 1014.6
20260502234503 42 237 1.0 2.0 0.00 0.00 0.00 70 1014.6
20260502234015 42 237 1.0 2.0 0.00 0.00 0.00 70 1014.5
20260502233503 42 237 1.0 2.0 0.00 0.00 0.00 71 1014.5
20260502233003 43 237 1.0 2.0 0.00 0.00 0.00 70 1014.5
20260502232503 43 236 1.0 3.0 0.00 0.00 0.00 70 1014.6
20260502232218 43 235 1.0 3.0 0.00 0.00 0.00 69 1014.5
20260502231717 43 233 1.0 3.0 0.00 0.00 0.00 69 1014.4
20260502231003 43 237 1.0 3.0 0.00 0.00 0.00 69 1014.4
20260502230503 43 245 1.0 3.0 0.00 0.00 0.00 70 1014.3
20260502230003 43 246 1.0 3.0 0.00 0.00 0.00 69 1014.3
20260502225717 43 246 1.0 3.0 0.00 0.00 0.00 68 1014.3
20260502225003 43 228 1.0 2.0 0.00 0.00 0.00 69 1014.3
20260502224503 43 217 1.0 4.0 0.00 0.00 0.00 70 1014.4
20260502224005 43 224 1.0 4.0 0.00 0.00 0.00 71 1014.4